User: anonymous   Login
Location: Huesca
(42.1318°N, 0.4078°W)
Time: 21:44:43
(UTC+02:00)
Language:

ESTCUBE 1 - Orbit

View from above orbital plane
View from above orbital plane
View from above satellite
View from above satellite

Ground track
Ground track

The orbit data is extracted from the following two-line orbital elements,

1 39161U 13021C   24113.15064972  .00006347  00000-0  92768-3 0  9997
2 39161  97.8318 181.3271 0010036  57.9946 302.2238 14.76004194588862
Epoch (UTC): 22 April 2024 03:36:56
Eccentricity: 0.0010036
inclination: 97.8318°
perigee height: 635 km
apogee height: 649 km
right ascension of ascending node: 181.3271°
argument of perigee: 57.9946°
revolutions per day: 14.76004194
mean anomaly at epoch: 302.2238°
orbit number at epoch: 58886

The dashed part of the orbit path shows where the satellite is in the earth's shadow,  

DLR